Home > Time Zones > World Clock > Weather > Togo > Lomé > Past weeks

Flag for Togo Weather past 2 weeks in Lomé, Togo

Now
75 °F

Passing clouds.


Feels Like: 73 °F
Forecast: 74 / 84 °F
Wind: 7 mph from Southwest

Location: Lome Airport

Current Time: Aug 3, 2015 at 3:28:36 AM

Latest Report: Aug 3, 2015 at 3:00 AM


Visibility: 5 mi

Pressure: 29.95 "Hg

Humidity: 100%

Dew point: 75 °F

Location of LoméLocation

Historic Weather in Lomé — Graph

°F

Lomé temperature yesterday

Maximum temperature yesterday: 82 °F (at 12:00 PM)
Minimum temperature yesterday: 73 °F (at 2:00 AM)
Average temperature yesterday: 77 °F

Past Weeks' High & Low Weather Summary

 TemperatureHumidityPressure
High86 °F (Jul 23, 12:00 PM)100% (Jul 21, 1:00 AM)30.07 "Hg (Jul 21, 1:00 AM)
Low73 °F (Jul 22, 2:00 AM)62% (Jul 23, 12:00 PM)29.86 "Hg (Jul 19, 4:00 PM)
Average78 °F86%29.97 "Hg
* Reported Jul 19 2:00 AM — Aug 3 2:00 AM, Lomé, Weather by CustomWeather, © 2015

Note: Actual official high and low records may vary slightly from our data, if they occured in-between our weather recording intervals... More about our weather records

Advertising

Lomé weather history for previous 24 hours

 ConditionsComfort  
Time TempWeatherWind HumidityBarometerVisibility
2:00 AM
Mon, Aug 3
75 °FPassing clouds.9 mph100%29.95 "Hg5 mi
1:00 AM75 °FPassing clouds.9 mph100%29.95 "Hg5 mi
12:00 AM75 °FPassing clouds.12 mph100%29.95 "Hg5 mi
11:00 PM
Sun, Aug 2
75 °FPartly cloudy.10 mph100%29.95 "Hg4 mi
10:00 PM75 °FPassing clouds.7 mph100%29.95 "Hg4 mi
9:00 PM75 °FPassing clouds.8 mph100%29.95 "HgN/A
8:00 PM75 °FPassing clouds.9 mph100%29.95 "HgN/A
7:00 PM75 °FPassing clouds.8 mph100%29.92 "HgN/A
6:00 PM75 °FPassing clouds.9 mph94%29.92 "HgN/A
5:00 PM79 °FPassing clouds.12 mph84%29.89 "HgN/A
4:00 PM81 °FPassing clouds.13 mph79%29.89 "HgN/A
3:00 PM79 °FPassing clouds.14 mph84%29.92 "HgN/A
2:00 PM82 °FPassing clouds.13 mph74%29.92 "HgN/A
1:00 PM82 °FPassing clouds.13 mph74%29.95 "HgN/A
12:00 PM82 °FScattered clouds.10 mph74%29.98 "HgN/A
11:00 AM81 °FScattered clouds.8 mph79%29.98 "Hg5 mi
10:00 AM79 °FBroken clouds.10 mph84%30.01 "Hg5 mi
9:00 AM77 °FBroken clouds.10 mph89%29.98 "Hg5 mi
8:00 AM75 °FBroken clouds.9 mph94%29.98 "Hg5 mi
7:00 AM75 °FBroken clouds.9 mph100%29.95 "Hg4 mi
6:00 AM73 °FBroken clouds.9 mph100%29.95 "Hg4 mi
5:00 AM73 °FPartly cloudy.7 mph100%29.92 "Hg5 mi
4:00 AM73 °FPassing clouds.7 mph100%29.92 "Hg5 mi
3:00 AM75 °FPassing clouds.5 mph94%29.92 "HgN/A
Weather by CustomWeather, © 2015

See weather overviewHow to use our weather pages